• In Österreich
  • Länderverzeichnis
  • Für 7 Tage
  • Wassertemperatur
  • Satellitenkarten
  • Wetterkarte
  • News
  • Widgets
  • user-avatar
    Anmelden

    Stündliche Wetter Durres

    Heute, 16 Dezember, Samstag

    Zeit Temperatur Niederschläge Wind Luftdruck Luftfeuchtigkeit
    00:00 +11°C° 0,4 mm 11 m/S 753 mmHg 85%
    01:00 +10°C° 0,4 mm 12 m/S 753 mmHg 87%
    02:00 +10°C° 0,3 mm 12 m/S 753 mmHg 87%
    03:00 +11°C° 0,3 mm 11 m/S 752 mmHg 86%
    04:00 +11°C° 0,3 mm 11 m/S 752 mmHg 86%
    05:00 +11°C° 0,4 mm 11 m/S 752 mmHg 86%
    06:00 +11°C° 0,4 mm 11 m/S 752 mmHg 87%
    07:00 +11°C° 0,4 mm 10 m/S 752 mmHg 87%
    08:00 +12°C° 1 mm 10 m/S 753 mmHg 87%
    09:00 +12°C° 1 mm 9 m/S 753 mmHg 87%
    10:00 +13°C° 1 mm 9 m/S 754 mmHg 87%
    11:00 +12°C° 1,6 mm 8 m/S 754 mmHg 89%
    12:00 +12°C° 1,6 mm 7 m/S 753 mmHg 91%
    13:00 +13°C° 1,6 mm 6 m/S 753 mmHg 92%
    14:00 +13°C° 1,5 mm 5 m/S 753 mmHg 93%
    15:00 +12°C° 1,5 mm 4 m/S 753 mmHg 93%
    16:00 +12°C° 1,5 mm 3 m/S 754 mmHg 94%
    17:00 +13°C° 0,8 mm 2 m/S 754 mmHg 94%
    18:00 +12°C° 0,8 mm 2 m/S 754 mmHg 95%
    19:00 +12°C° 0,8 mm 2 m/S 755 mmHg 95%
    20:00 +12°C° 0,6 mm 2 m/S 755 mmHg 95%
    21:00 +12°C° 0,6 mm 2 m/S 755 mmHg 94%
    22:00 +12°C° 0,6 mm 2 m/S 756 mmHg 94%
    23:00 +10°C° 0,4 mm 3 m/S 756 mmHg 93%

    Morgen, 17 Dezember, Sonntag

    Zeit Temperatur Niederschläge Wind Luftdruck Luftfeuchtigkeit
    00:00 +10°C° 0,4 mm 3 m/S 756 mmHg 92%
    01:00 +10°C° 0,4 mm 4 m/S 756 mmHg 91%
    02:00 +10°C° 0,4 mm 4 m/S 756 mmHg 91%
    03:00 +8°C° 0,4 mm 4 m/S 756 mmHg 91%
    04:00 +8°C° 0,4 mm 4 m/S 756 mmHg 91%
    05:00 +8°C° 0,1 mm 4 m/S 756 mmHg 91%
    06:00 +8°C° 0,1 mm 3 m/S 757 mmHg 90%
    07:00 +8°C° 0,1 mm 3 m/S 757 mmHg 90%
    08:00 +9°C° 0,2 mm 3 m/S 757 mmHg 82%
    09:00 +10°C° 0,2 mm 4 m/S 758 mmHg 75%
    10:00 +11°C° 0,2 mm 4 m/S 758 mmHg 67%
    11:00 +11°C° 0,4 mm 4 m/S 758 mmHg 66%
    12:00 +10°C° 0,4 mm 5 m/S 758 mmHg 66%
    13:00 +10°C° 0,4 mm 5 m/S 758 mmHg 65%
    14:00 +9°C° 0,3 mm 5 m/S 758 mmHg 71%
    15:00 +10°C° 0,3 mm 4 m/S 758 mmHg 77%
    16:00 +8°C° 0,3 mm 4 m/S 758 mmHg 82%
    17:00 +7°C° 0,4 mm 4 m/S 759 mmHg 84%
    18:00 +7°C° 0,4 mm 5 m/S 760 mmHg 85%
    19:00 +6°C° 0,4 mm 5 m/S 760 mmHg 86%
    20:00 +5°C° 0,8 mm 6 m/S 761 mmHg 84%
    21:00 +5°C° 0,8 mm 6 m/S 761 mmHg 81%
    22:00 +5°C° 0,8 mm 7 m/S 762 mmHg 79%
    23:00 +5°C° 0,9 mm 7 m/S 762 mmHg 80%

    übermorgen, 18 Dezember, Montag

    Zeit Temperatur Niederschläge Wind Luftdruck Luftfeuchtigkeit
    00:00 +5°C° 0,9 mm 7 m/S 762 mmHg 80%
    01:00 +5°C° 0,9 mm 8 m/S 762 mmHg 81%
    02:00 +5°C° 0,6 mm 7 m/S 762 mmHg 83%
    03:00 +4°C° 0,6 mm 7 m/S 762 mmHg 85%
    04:00 +4°C° 0,6 mm 6 m/S 763 mmHg 87%
    05:00 +4°C° 0,1 mm 6 m/S 763 mmHg 88%
    06:00 +4°C° 0,1 mm 6 m/S 763 mmHg 89%
    07:00 +3°C° 0,1 mm 5 m/S 764 mmHg 90%
    08:00 +5°C° 0,1 mm 5 m/S 764 mmHg 86%
    09:00 +5°C° 0,1 mm 5 m/S 764 mmHg 82%
    10:00 +6°C° 0,1 mm 5 m/S 765 mmHg 79%
    11:00 +6°C° 0,1 mm 5 m/S 764 mmHg 77%
    12:00 +6°C° 0,1 mm 5 m/S 764 mmHg 75%
    13:00 +6°C° 0,1 mm 5 m/S 764 mmHg 74%
    14:00 +6°C° 0 mm 5 m/S 764 mmHg 75%
    15:00 +5°C° 0 mm 5 m/S 764 mmHg 77%
    16:00 +5°C° 0 mm 5 m/S 764 mmHg 79%
    17:00 +3°C° 0 mm 5 m/S 765 mmHg 81%
    18:00 +3°C° 0 mm 5 m/S 765 mmHg 82%
    19:00 +3°C° 0 mm 4 m/S 766 mmHg 84%
    20:00 +1°C° 0 mm 4 m/S 766 mmHg 83%
    21:00 +1°C° 0 mm 4 m/S 766 mmHg 83%
    22:00 +1°C° 0 mm 4 m/S 767 mmHg 83%
    23:00 0°C° 0 mm 4 m/S 767 mmHg 83%

    19 Dezember, Dienstag

    Zeit Temperatur Niederschläge Wind Luftdruck Luftfeuchtigkeit
    00:00 0°C° 0 mm 4 m/S 767 mmHg 82%
    01:00 0°C° 0 mm 4 m/S 767 mmHg 82%
    02:00 0°C° 0 mm 4 m/S 768 mmHg 81%
    03:00 0°C° 0 mm 4 m/S 768 mmHg 80%
    04:00 0°C° 0 mm 4 m/S 768 mmHg 79%
    05:00 -1°C° 0 mm 4 m/S 768 mmHg 77%
    06:00 -1°C° 0 mm 4 m/S 769 mmHg 76%
    07:00 -1°C° 0 mm 4 m/S 769 mmHg 75%
    08:00 +1°C° 0 mm 4 m/S 770 mmHg 70%
    09:00 +3°C° 0 mm 4 m/S 770 mmHg 65%
    10:00 +4°C° 0 mm 4 m/S 770 mmHg 59%
    11:00 +5°C° 0 mm 4 m/S 770 mmHg 57%
    12:00 +6°C° 0 mm 4 m/S 770 mmHg 54%
    13:00 +6°C° 0 mm 4 m/S 770 mmHg 51%
    14:00 +5°C° 0 mm 4 m/S 770 mmHg 55%
    15:00 +5°C° 0 mm 5 m/S 770 mmHg 59%
    16:00 +3°C° 0 mm 5 m/S 770 mmHg 63%
    17:00 +2°C° 0 mm 5 m/S 770 mmHg 65%
    18:00 +1°C° 0 mm 5 m/S 771 mmHg 66%
    19:00 0°C° 0 mm 5 m/S 771 mmHg 68%
    20:00 0°C° 0 mm 5 m/S 772 mmHg 68%
    21:00 0°C° 0 mm 5 m/S 772 mmHg 68%
    22:00 0°C° 0 mm 5 m/S 772 mmHg 69%
    23:00 -1°C° 0 mm 5 m/S 772 mmHg 69%

    20 Dezember, Mittwoch

    Zeit Temperatur Niederschläge Wind Luftdruck Luftfeuchtigkeit
    00:00 -1°C° 0 mm 5 m/S 772 mmHg 69%
    01:00 -1°C° 0 mm 5 m/S 772 mmHg 69%
    02:00 -1°C° 0 mm 4 m/S 772 mmHg 68%
    03:00 -1°C° 0 mm 4 m/S 772 mmHg 68%
    04:00 -1°C° 0 mm 4 m/S 772 mmHg 67%
    05:00 -1°C° 0 mm 4 m/S 772 mmHg 66%
    06:00 -1°C° 0 mm 4 m/S 772 mmHg 66%
    07:00 0°C° 0 mm 3 m/S 772 mmHg 65%
    08:00 +1°C° 0 mm 3 m/S 772 mmHg 60%
    09:00 +2°C° 0 mm 3 m/S 772 mmHg 54%
    10:00 +4°C° 0 mm 3 m/S 772 mmHg 49%
    11:00 +4°C° 0 mm 3 m/S 772 mmHg 48%
    12:00 +5°C° 0 mm 3 m/S 771 mmHg 46%
    13:00 +5°C° 0 mm 3 m/S 771 mmHg 44%
    14:00 +4°C° 0 mm 3 m/S 771 mmHg 49%
    15:00 +4°C° 0 mm 3 m/S 771 mmHg 55%
    16:00 +3°C° 0 mm 3 m/S 771 mmHg 60%
    17:00 +2°C° 0 mm 3 m/S 771 mmHg 62%
    18:00 +2°C° 0 mm 3 m/S 772 mmHg 63%
    19:00 0°C° 0 mm 4 m/S 772 mmHg 65%
    20:00 0°C° 0 mm 4 m/S 772 mmHg 65%
    21:00 0°C° 0 mm 4 m/S 772 mmHg 65%
    22:00 -1°C° 0 mm 4 m/S 773 mmHg 66%
    23:00 -1°C° 0 mm 4 m/S 773 mmHg 65%

    21 Dezember, Donnerstag

    Zeit Temperatur Niederschläge Wind Luftdruck Luftfeuchtigkeit
    00:00 -1°C° 0 mm 4 m/S 773 mmHg 65%
    01:00 0°C° 0 mm 3 m/S 773 mmHg 64%
    02:00 0°C° 0 mm 3 m/S 772 mmHg 64%
    03:00 0°C° 0 mm 3 m/S 772 mmHg 63%
    04:00 0°C° 0 mm 3 m/S 772 mmHg 62%
    05:00 0°C° 0 mm 3 m/S 773 mmHg 61%
    06:00 0°C° 0 mm 3 m/S 773 mmHg 60%
    07:00 0°C° 0 mm 3 m/S 773 mmHg 59%
    08:00 +1°C° 0 mm 3 m/S 773 mmHg 55%
    09:00 +4°C° 0 mm 2 m/S 773 mmHg 50%
    10:00 +5°C° 0 mm 2 m/S 773 mmHg 45%
    11:00 +6°C° 0 mm 2 m/S 773 mmHg 44%
    12:00 +7°C° 0 mm 2 m/S 773 mmHg 44%
    13:00 +7°C° 0 mm 2 m/S 772 mmHg 43%
    14:00 +6°C° 0 mm 2 m/S 772 mmHg 48%
    15:00 +5°C° 0 mm 2 m/S 772 mmHg 54%
    16:00 +4°C° 0 mm 2 m/S 772 mmHg 59%
    17:00 +4°C° 0 mm 2 m/S 772 mmHg 59%
    18:00 +3°C° 0 mm 2 m/S 772 mmHg 59%
    19:00 +3°C° 0 mm 2 m/S 773 mmHg 60%
    20:00 +3°C° 0 mm 2 m/S 773 mmHg 59%
    21:00 +3°C° 0 mm 2 m/S 773 mmHg 59%
    22:00 +3°C° 0 mm 2 m/S 773 mmHg 58%
    23:00 +3°C° 0 mm 2 m/S 772 mmHg 58%
    Mehr zeigen